Date String (YYYY-MM-DD hh:mm:ss) UTC,Instrument flags,Ambient pressure (hPa),Sample flow (lpm),Bypass flow (lpm),Sample temperature (°C),Ambient temperature (°C),ASC tube jacket temperature (°C),LED temperature (°C),Box temperature (°C),Sample RH (%),Span deviation,Mass concentration (μg/m³),Mass concentration (μg/m³),Mass concentration (μg/m³)
DateTimeUTC,F1_M11,P_M11,Q1_M11,Q2_M11,T1_M11,T2_M11,T3_M11,T4_M11,T5_M11,U1_M11,ZSPAN_M11,X0_M11,X2_M11,X1_M11
2022-01-16 00:00:00,,0827.0,5.01,0.00,24.9,24.3,00.0,33.9,26.7,07.4,0000.0,0009.00,0004.39,0003.93
2022-01-16 00:01:00,,0826.9,4.99,0.00,24.9,24.2,00.0,33.9,26.7,07.2,0000.0,0009.02,0004.41,0003.95
2022-01-16 00:02:00,,0826.8,5.01,0.00,24.9,24.2,00.0,33.9,26.7,07.2,0000.0,0008.96,0004.41,0003.96
2022-01-16 00:03:00,,0827.0,4.98,0.00,24.9,24.2,00.0,33.9,26.6,07.1,0000.0,0009.00,0004.43,0003.96
2022-01-16 00:04:00,,0826.9,5.02,0.00,24.9,24.2,00.0,33.9,26.6,07.4,0000.0,0008.06,0004.40,0003.98
2022-01-16 00:05:00,,0826.9,4.99,0.00,24.8,24.1,00.0,33.9,26.6,07.7,0000.0,0007.74,0004.38,0003.99
2022-01-16 00:06:00,,0827.0,5.01,0.00,24.8,24.1,00.0,33.9,26.6,07.5,0000.0,0008.52,0004.38,0004.00
2022-01-16 00:07:00,,0826.9,5.00,0.00,24.8,24.1,00.0,33.8,26.6,07.8,0000.0,0008.90,0004.37,0004.00
2022-01-16 00:08:00,,0826.9,5.00,0.00,24.8,24.2,00.0,33.8,26.6,07.4,0000.0,0008.81,0004.36,0004.02
2022-01-16 00:09:00,,0826.8,4.99,0.00,24.8,24.2,00.0,33.8,26.6,07.2,0000.0,0008.71,0004.37,0004.05
2022-01-16 00:10:00,,0826.8,5.00,0.00,24.9,24.2,00.0,33.8,26.7,08.5,0000.0,0008.52,0004.32,0004.06
2022-01-16 00:11:00,,0827.0,5.01,0.00,24.9,24.2,00.0,33.8,26.7,09.2,0000.0,0008.63,0004.34,0004.05
2022-01-16 00:12:00,,0826.9,4.98,0.00,24.9,24.2,00.0,33.8,26.7,09.5,0000.0,0009.55,0004.38,0004.06
2022-01-16 00:13:00,,0826.9,4.99,0.00,24.9,24.2,00.0,33.8,26.7,09.5,0000.0,0009.91,0004.44,0004.08
2022-01-16 00:14:00,,0826.9,5.01,0.00,24.9,24.2,00.0,33.8,26.7,08.9,0000.0,0009.96,0004.44,0004.08
2022-01-16 00:15:00,,0827.0,5.01,0.00,24.9,24.2,00.0,33.8,26.7,08.2,0000.0,0009.97,0004.45,0004.07
2022-01-16 00:16:00,,0826.8,4.98,0.00,24.9,24.2,00.0,33.8,26.7,08.7,0000.0,0010.09,0004.49,0004.06
2022-01-16 00:17:00,,0827.0,5.00,0.00,24.9,24.2,00.0,33.8,26.7,07.2,0000.0,0009.26,0004.49,0004.05
2022-01-16 00:18:00,,0827.0,5.00,0.00,24.9,24.2,00.0,33.8,26.7,07.4,0000.0,0008.79,0004.46,0004.02
2022-01-16 00:19:00,,0826.8,4.99,0.00,24.9,24.2,00.0,33.8,26.8,07.7,0000.0,0008.70,0004.42,0004.00
2022-01-16 00:20:00,,0826.8,5.01,0.00,24.9,24.2,00.0,33.8,26.8,07.8,0000.0,0008.90,0004.38,0003.95
2022-01-16 00:21:00,,0826.8,5.00,0.00,25.0,24.2,00.0,33.8,26.8,07.8,0000.0,0009.16,0004.36,0003.93
2022-01-16 00:22:00,,0826.8,4.99,0.00,25.0,24.3,00.0,33.9,26.8,07.5,0000.0,0009.07,0004.34,0003.93
2022-01-16 00:23:00,,0826.8,5.01,0.00,25.0,24.3,00.0,33.9,26.8,07.6,0000.0,0008.24,0004.31,0003.91
2022-01-16 00:24:00,,0826.8,5.00,0.00,25.0,24.3,00.0,33.9,26.8,08.3,0000.0,0007.98,0004.26,0003.90
2022-01-16 00:25:00,,0826.8,5.01,0.00,25.0,24.3,00.0,33.9,26.8,08.5,0000.0,0007.94,0004.23,0003.89
2022-01-16 00:26:00,,0826.8,5.00,0.00,25.0,24.3,00.0,33.9,26.8,08.5,0000.0,0008.21,0004.22,0003.89
2022-01-16 00:27:00,,0826.8,5.00,0.00,25.0,24.3,00.0,33.9,26.8,08.3,0000.0,0008.41,0004.20,0003.90
2022-01-16 00:28:00,,0826.9,5.00,0.00,25.0,24.3,00.0,33.9,26.8,08.1,0000.0,0008.62,0004.22,0003.92
2022-01-16 00:29:00,,0826.9,4.99,0.00,25.0,24.3,00.0,33.9,26.8,07.8,0000.0,0008.83,0004.29,0003.98
2022-01-16 00:30:00,,0827.0,5.01,0.00,25.0,24.3,00.0,33.9,26.8,07.8,0000.0,0008.96,0004.37,0004.03
2022-01-16 00:31:00,,0827.0,5.00,0.00,25.0,24.3,00.0,33.9,26.8,07.7,0000.0,0008.83,0004.44,0004.07
2022-01-16 00:32:00,,0826.9,5.00,0.00,25.0,24.3,00.0,33.9,26.8,07.5,0000.0,0009.29,0004.51,0004.12
2022-01-16 00:33:00,,0827.0,5.00,0.00,25.0,24.3,00.0,33.9,26.8,07.3,0000.0,0009.43,0004.55,0004.16
2022-01-16 00:34:00,,0827.0,5.00,0.00,25.0,24.3,00.0,33.9,26.8,07.2,0000.0,0009.37,0004.58,0004.21
2022-01-16 00:35:00,,0826.9,5.00,0.00,25.0,24.3,00.0,33.9,26.8,07.2,0000.0,0009.31,0004.60,0004.23
2022-01-16 00:36:00,,0826.9,5.00,0.00,25.0,24.3,00.0,33.9,26.8,07.3,0000.0,0009.24,0004.67,0004.28
2022-01-16 00:37:00,,0826.9,4.99,0.00,25.0,24.2,00.0,33.9,26.8,07.4,0000.0,0009.06,0004.71,0004.31
2022-01-16 00:38:00,,0827.0,5.00,0.00,25.0,24.2,00.0,33.9,26.8,07.5,0000.0,0008.92,0004.75,0004.32
2022-01-16 00:39:00,,0827.0,5.00,0.00,24.9,24.2,00.0,33.9,26.7,07.7,0000.0,0009.10,0004.79,0004.33
2022-01-16 00:40:00,,0827.1,5.02,0.00,24.9,24.2,00.0,33.9,26.7,07.9,0000.0,0009.07,0004.77,0004.32
2022-01-16 00:41:00,,0827.1,5.00,0.00,24.9,24.2,00.0,33.9,26.7,08.0,0000.0,0009.57,0004.74,0004.31
2022-01-16 00:42:00,,0827.1,5.00,0.00,24.9,24.2,00.0,33.9,26.7,07.8,0000.0,0009.62,0004.77,0004.31
2022-01-16 00:43:00,,0827.1,5.00,0.00,24.9,24.2,00.0,33.9,26.7,07.9,0000.0,0009.08,0004.75,0004.29
2022-01-16 00:44:00,,0827.1,5.01,0.00,24.9,24.2,00.0,33.9,26.7,07.7,0000.0,0009.90,0004.73,0004.28
2022-01-16 00:45:00,,0827.2,4.99,0.00,24.9,24.2,00.0,33.9,26.7,07.6,0000.0,0009.94,0004.71,0004.25
2022-01-16 00:46:00,,0827.6,5.00,0.00,24.9,24.2,00.0,33.9,26.7,07.7,0000.0,0009.91,0004.69,0004.22
2022-01-16 00:47:00,,0827.5,5.01,0.00,24.9,24.2,00.0,33.9,26.7,08.0,0000.0,0009.92,0004.66,0004.21
2022-01-16 00:48:00,,0827.6,4.98,0.00,24.9,24.2,00.0,33.9,26.7,08.4,0000.0,0009.92,0004.63,0004.18
2022-01-16 00:49:00,,0827.6,5.01,0.00,24.9,24.2,00.0,33.9,26.7,08.3,0000.0,0009.80,0004.58,0004.14
2022-01-16 00:50:00,,0827.6,4.99,0.00,24.9,24.2,00.0,33.8,26.7,07.9,0000.0,0009.76,0004.56,0004.12
2022-01-16 00:51:00,,0827.7,5.01,0.00,24.9,24.1,00.0,33.8,26.7,07.6,0000.0,0010.17,0004.55,0004.09
2022-01-16 00:52:00,,0827.2,5.00,0.00,24.9,24.1,00.0,33.8,26.7,07.5,0000.0,0010.30,0004.54,0004.07
2022-01-16 00:53:00,,0827.7,4.99,0.00,24.9,24.1,00.0,33.8,26.7,07.5,0000.0,0010.14,0004.50,0004.05
2022-01-16 00:54:00,,0827.3,5.01,0.00,24.9,24.1,00.0,33.8,26.7,07.5,0000.0,0009.98,0004.47,0004.05
2022-01-16 00:55:00,,0827.2,4.98,0.00,24.9,24.1,00.0,33.8,26.7,07.4,0000.0,0009.02,0004.46,0004.04
2022-01-16 00:56:00,,0827.3,5.00,0.00,24.9,24.1,00.0,33.8,26.7,07.4,0000.0,0009.13,0004.45,0004.03
2022-01-16 00:57:00,,0827.3,5.01,0.00,24.9,24.1,00.0,33.8,26.7,07.4,0000.0,0009.31,0004.43,0004.00
2022-01-16 00:58:00,,0827.3,4.99,0.00,24.9,24.1,00.0,33.8,26.7,07.5,0000.0,0009.29,0004.39,0003.98
2022-01-16 00:59:00,,0827.4,5.01,0.00,24.9,24.1,00.0,33.8,26.7,07.5,0000.0,0009.22,0004.37,0003.97
